Simultaneous Nadir Overpasses (SNOs) Predictions

Prediction of SNOs between GOES-15 and METOP-A Satellite Orbit:

Table of predicted SNOs for the next 14.0 days since TLE Epoch: 8/1/2014
<
Index Date Time (GOES-15) GOES-15 Lat,Lon METOP-A Lat,Lon Distance(km) Time Diff (sec)
1 08/01/2014 18:29:10 0.01,-135.48 -0.04,-135.15 37.43 80
2 08/03/2014 06:50:51 -0.04,-135.49 -1.00,-139.74 484.96 80
3 08/04/2014 06:27:33 -0.02,-135.50 0.12,-134.75 84.26 80
4 08/05/2014 18:49:05 0.05,-135.51 0.92,-139.31 433.69 80
5 08/06/2014 18:25:47 0.03,-135.50 -0.26,-134.33 134.83 80
6 08/08/2014 06:47:28 -0.06,-135.50 -0.83,-138.91 389.13 80
7 08/09/2014 06:24:09 -0.04,-135.49 0.30,-133.92 179.05 80
8 08/10/2014 18:45:42 0.07,-135.49 0.74,-138.47 340.09 80
9 08/11/2014 18:22:23
